"Pseudo-MPEC" for A109cnu

Created 2018 Oct 12 20:18:05 UT using Find_Orb

Click here for an explanation of pseudo-MPECs

 
 Astrometry: 
     A109cnu  C2018 10 10;nAstrometryOE*e$%t,,s=lMwji3$L*:\,^d`75!+o**J/YDo?=T05
     A109cnu  C2018 10 1021D/!gBZ9'Nv3g`sXON=EXHy\1XZwwlbuUcbQwXLRE98qhF4g%6fT05
     A109cnu  C2018 10 10;!DB[usM]I\14xgl$?8=20hTWA6m-QH+M*G1=Jn=[(o#Nsvfj.QXT05
     A109cnu  C2018 10 10b.5)x\j)*uW4!Xr(nj=P_t$3qEWYv6B^%%\aJeEEvZ!T4s6(c.X#T05
     A109cnu  C2018 10 11(\jy'GYW]U;4QW^q#redacted;^m7_K2lSveS)!C\)jo:(JVD9-VT08
     A109cnu  C2018 10 11w$Y5Lpt(A-tN]u9jX:3:wW08_4H^MUn%4M::wiBPpFgk_WISj+!(T08
     A109cnu  C2018 10 11C;kSDGIht=\q`$i6u5#@N4D[XfZDcu`.N*/u-QI%4telcVAR3bH`T08
     A109cnu  C2018 10 11aZ(:Fki`qEcFRno1(iQO,ap^t2vrWNbKtS;5-fZJ3f?\x!OP26!KT08
     A109cnu  C2018 10 11d3ia`Irh1w=?8RLY2wlxp(vq.%uo#FZjseeiu*9Gs$D6C7hppGR=T08
     A109cnu  C2018 10 11DOhS.j($G(88q3vd4oiX_2oM\?'][ZTcC3K3oO[wAMH.I3B?VUXBT08
     A109cnu |C2018 10 12J,YDg%!q_:Lj'usr;iu#m.Ff!D`%PsIr6)MaBlUI6\D/S=$Bl(5(807
     A109cnu |C2018 10 12!r)F2bP,fBoP]kv8:2N_u'VT$H6mIN!o`=yl)VhR,KD(=^nlwiM-807
     A109cnu |C2018 10 12CQ/3EeQH9,qJpl-[`2`*n$BJt,w'))7=(VHPp/Gp3q@xwd8NEOCP807

Station data:
(807) Cerro Tololo Observatory, La Serena  (S30.169136 W70.805900)  Chile.
   1.5-m Ritchey-Chrétien.
(T05) ATLAS-HKO, Haleakala  (N20.707573 W156.257010)  US/Hawaii.  Observers
   L. Denneau, A. Heinze, H. Weiland, B. Stalder, J. Tonry, A. Sherstyuk.
   Measurers L. Denneau, A. Heinze, J. Tonry. 0.5-m f/2.0 Schmidt + CCD.
(T08) ATLAS-MLO, Mauna Loa  (N19.535772 W155.576400)  US/Hawaii.

Orbital elements:  A109cnu
   Perihelion 2018 Aug 16.565397 +/- 0.26 TT = 13:34:10 (JD 2458347.065397)
Epoch 2018 Oct 12.0 TT = JDT 2458403.5   Earth MOID: 0.0091   AutoNEOCP
M  39.28694 +/- 0.48                (J2000 ecliptic)
n   0.69614989 +/- 0.00546          Peri.  113.19752 +/- 0.18
a   1.26086196 +/- 0.00659          Node   194.41429 +/- 0.0047
e   0.3147631 +/- 0.0041            Incl.   21.31476 +/- 0.19
P   1.42/517.12d           H 24.7   G  0.15   U  9.2  
q 0.86398912 +/- 0.000649    Q 1.65773480 +/- 0.0138
From 13 observations 2018 Oct. 10-12 (45.8 hr); mean residual 0".80
Residuals in arcseconds: 
181010 T05  .21+  .74-    181011 T08  .70+  2.0-    181012 807  .11-  .22+    
181010 T05  .77+  .20-    181011 T08  1.3+  .57-    181012 807  .12+  .01-    
181010 T05  .21-  .20+    181011 T08  1.5-  .31+    181012 807  .07+  .00     
181010 T05  .70-  .91+    181011 T08  .37+  .82+    
181011 T08  1.8-  .74+    181011 T08  .66+  .19+    

Ephemerides (geocentric):
Date (UTC) HH   RA              Dec         delta   r     elong  mag " sig PA
---- -- -- --  -------------   -----------  ------ ------ -----  --- ---- ---
2018 10 12 20  00 54 52.912   -36 24 46.19  .04500 1.0307 135.9 19.7  2.7 105
2018 10 12 21  00 55 27.884   -36 28 13.68  .04533 1.0309 135.9 19.7  2.8 106
2018 10 12 22  00 56 02.397   -36 31 37.36  .04566 1.0311 135.8 19.7  2.9 107
2018 10 12 23  00 56 36.460   -36 34 57.31  .04600 1.0313 135.7 19.8  3.1 107
2018 10 13 00  00 57 10.082   -36 38 13.62  .04633 1.0315 135.7 19.8  3.2 107
2018 10 13 01  00 57 43.269   -36 41 26.38  .04667 1.0317 135.6 19.8  3.3 108
2018 10 13 02  00 58 16.031   -36 44 35.67  .04700 1.0319 135.5 19.8  3.4 108
2018 10 13 03  00 58 48.375   -36 47 41.57  .04734 1.0321 135.5 19.8  3.5 109
2018 10 13 04  00 59 20.308   -36 50 44.17  .04767 1.0323 135.4 19.8  3.6 109
2018 10 13 05  00 59 51.838   -36 53 43.53  .04801 1.0325 135.4 19.9  3.8 109
2018 10 13 06  01 00 22.972   -36 56 39.74  .04834 1.0327 135.3 19.9  3.9 109
2018 10 13 07  01 00 53.717   -36 59 32.85  .04868 1.0329 135.2 19.9  4.0 110
2018 10 13 08  01 01 24.080   -37 02 22.95  .04902 1.0331 135.2 19.9  4.1 110
2018 10 13 09  01 01 54.068   -37 05 10.10  .04935 1.0333 135.1 19.9  4.2 110
2018 10 13 10  01 02 23.687   -37 07 54.36  .04969 1.0335 135.1 19.9  4.3 110
2018 10 13 11  01 02 52.945   -37 10 35.81  .05003 1.0337 135.0 20.0  4.5 110
2018 10 13 12  01 03 21.846   -37 13 14.49  .05036 1.0339 135.0 20.0  4.6 111
2018 10 13 13  01 03 50.397   -37 15 50.48  .05070 1.0342 134.9 20.0  4.7 111
2018 10 13 14  01 04 18.605   -37 18 23.83  .05104 1.0344 134.8 20.0  4.8 111
2018 10 13 15  01 04 46.475   -37 20 54.60  .05137 1.0346 134.8 20.0  4.9 111
2018 10 13 16  01 05 14.013   -37 23 22.84  .05171 1.0348 134.7 20.0  5.0 111
2018 10 13 17  01 05 41.225   -37 25 48.61  .05205 1.0350 134.7 20.0  5.1 111
2018 10 13 18  01 06 08.116   -37 28 11.96  .05239 1.0352 134.6 20.1  5.3 111
2018 10 13 19  01 06 34.691   -37 30 32.95  .05273 1.0354 134.6 20.1  5.4 111
2018 10 13 20  01 07 00.956   -37 32 51.61  .05306 1.0356 134.5 20.1  5.5 111
2018 10 13 21  01 07 26.917   -37 35 08.00  .05340 1.0358 134.5 20.1  5.6 111
2018 10 13 22  01 07 52.577   -37 37 22.17  .05374 1.0360 134.4 20.1  5.7 111
2018 10 13 23  01 08 17.942   -37 39 34.16  .05408 1.0362 134.4 20.1  5.8 111
2018 10 14 00  01 08 43.017   -37 41 44.01  .05442 1.0364 134.3 20.2  5.9 111
2018 10 14 01  01 09 07.807   -37 43 51.78  .05476 1.0366 134.3 20.2  6.0 111
2018 10 14 02  01 09 32.316   -37 45 57.50  .05510 1.0368 134.2 20.2  6.1 112
2018 10 14 03  01 09 56.549   -37 48 01.21  .05544 1.0370 134.2 20.2  6.2 112
2018 10 14 04  01 10 20.510   -37 50 02.96  .05578 1.0372 134.1 20.2  6.3 112
2018 10 14 05  01 10 44.203   -37 52 02.78  .05612 1.0374 134.1 20.2  6.5 112
2018 10 14 06  01 11 07.634   -37 54 00.71  .05646 1.0376 134.0 20.2  6.6 112
2018 10 14 07  01 11 30.806   -37 55 56.79  .05680 1.0378 134.0 20.3  6.7 112
2018 10 14 08  01 11 53.723   -37 57 51.05  .05714 1.0380 134.0 20.3  6.8 112
2018 10 14 09  01 12 16.389   -37 59 43.53  .05748 1.0382 133.9 20.3  6.9 112
2018 10 14 10  01 12 38.809   -38 01 34.27  .05782 1.0384 133.9 20.3  7.0 112
2018 10 14 11  01 13 00.985   -38 03 23.29  .05816 1.0386 133.8 20.3  7.1 112
2018 10 14 12  01 13 22.922   -38 05 10.64  .05850 1.0388 133.8 20.3  7.2 112
2018 10 14 13  01 13 44.624   -38 06 56.33  .05884 1.0390 133.7 20.3  7.3 112
2018 10 14 14  01 14 06.094   -38 08 40.41  .05918 1.0392 133.7 20.4  7.4 112
2018 10 14 15  01 14 27.336   -38 10 22.90  .05952 1.0394 133.6 20.4  7.5 112
2018 10 14 16  01 14 48.353   -38 12 03.83  .05986 1.0396 133.6 20.4  7.6 111
2018 10 14 17  01 15 09.148   -38 13 43.24  .06020 1.0398 133.6 20.4  7.7 111
2018 10 14 18  01 15 29.725   -38 15 21.14  .06054 1.0400 133.5 20.4  7.8 111
2018 10 14 19  01 15 50.088   -38 16 57.57  .06088 1.0402 133.5 20.4  7.9 111